Weather History for KEEN - November, 2011

Change the Weather History Date:

Friday, November 11, 2011

  Actual Average Record
Temperature  
Mean Temperature 42 °F -  
Max Temperature 48 °F 49 °F 66 °F (1977)
Min Temperature 35 °F 30 °F 8 °F (1956)
Degree Days  
Heating Degree Days 24    
Moisture  
Dew Point 31 °F    
Average Humidity 69    
Maximum Humidity 93    
Minimum Humidity 40    
Precipitation  
Precipitation 0.03 in - - ()
Sea Level Pressure  
Sea Level Pressure 29.58 in    
Wind  
Wind Speed 8 mph (NW)    
Max Wind Speed 17 mph    
Max Gust Speed 24 mph    
Visibility 10 miles    
Events      
Averages and records for this station are not official NWS values.
T = Trace of Precipitation, MM = Missing Value Source: NWS Daily Summary

Daily Weather History Graph

Daily Weather History Graph

Search for Another Location

Airport or City:

Trip Planner

Search our weather history database for the weather conditions in past years. The results will help you decide how hot, cold, wet, or windy it might be!

Date:

Astronomy

Nov. 11, 2011 Rise Set
Actual Time 6:35 AM EST 4:29 PM EST
Civil Twilight 6:05 AM EST 5:00 PM EST
Nautical Twilight 5:31 AM EST 5:34 PM EST
Astronomical Twilight 4:58 AM EST 6:07 PM EST
Moon 4:54 PM EST (11/11) 7:23 AM EST (11/11)
Length of Visible Light 10h 54m
Length of Day
9h 54m
Full, 99% of the Moon is Illuminated
Nov 11
Full
Nov 18
Last Quarter
Nov 25
New
Dec 2
First Quarter
Dec 10
Full

Hourly Weather History & Observations

Time (EST) Temp. Windchill Dew Point Humidity Pressure Visibility Wind Dir Wind Speed Gust Speed Precip Events Conditions
12:15 AM 48.2 °F - 42.8 °F 82% 29.56 in 10.0 mi North 5.8 mph - N/A   Overcast
12:35 AM 46.4 °F 41.9 °F 39.2 °F 76% 29.57 in 10.0 mi NW 9.2 mph - N/A   Overcast
12:55 AM 46.4 °F 42.9 °F 39.2 °F 76% 29.56 in 10.0 mi NNW 6.9 mph 17.3 mph N/A   Overcast
1:15 AM 46.4 °F 43.5 °F 39.2 °F 76% 29.56 in 10.0 mi NW 5.8 mph - N/A   Overcast
1:55 AM 44.6 °F 40.7 °F 37.4 °F 76% 29.57 in 10.0 mi NW 6.9 mph - N/A   Overcast
2:15 AM 44.6 °F 40.2 °F 35.6 °F 71% 29.55 in 10.0 mi NW 8.1 mph - N/A   Mostly Cloudy
2:35 AM 44.6 °F 40.2 °F 35.6 °F 71% 29.55 in 10.0 mi NNW 8.1 mph - N/A   Mostly Cloudy
2:55 AM 44.6 °F 41.4 °F 35.6 °F 71% 29.55 in 10.0 mi NNW 5.8 mph - N/A   Mostly Cloudy
3:15 AM 44.6 °F 40.7 °F 35.6 °F 71% 29.54 in 10.0 mi North 6.9 mph - N/A   Mostly Cloudy
3:35 AM 42.8 °F 38.0 °F 37.4 °F 81% 29.53 in 10.0 mi North 8.1 mph - N/A   Overcast
3:55 AM 42.8 °F 37.5 °F 37.4 °F 81% 29.52 in 10.0 mi NNW 9.2 mph - N/A   Overcast
4:35 AM 41.0 °F 38.0 °F 37.4 °F 87% 29.48 in 10.0 mi NW 4.6 mph - N/A   Mostly Cloudy
4:55 AM 41.0 °F 34.7 °F 35.6 °F 81% 29.51 in 10.0 mi West 10.4 mph 16.1 mph N/A   Overcast
5:15 AM 41.0 °F 35.8 °F 33.8 °F 76% 29.51 in 10.0 mi WNW 8.1 mph - N/A   Overcast
5:35 AM 41.0 °F 35.8 °F 33.8 °F 76% 29.50 in 10.0 mi North 8.1 mph - N/A   Overcast
5:55 AM 41.0 °F 37.1 °F 33.8 °F 76% 29.49 in 10.0 mi NNW 5.8 mph - N/A   Mostly Cloudy
6:15 AM 41.0 °F 36.4 °F 33.8 °F 76% 29.49 in 10.0 mi North 6.9 mph - N/A   Mostly Cloudy
6:35 AM 41.0 °F 35.8 °F 33.8 °F 76% 29.49 in 10.0 mi North 8.1 mph - N/A   Partly Cloudy
6:55 AM 41.0 °F 34.7 °F 32.0 °F 70% 29.50 in 10.0 mi NW 10.4 mph - N/A   Scattered Clouds
7:15 AM 41.0 °F 35.8 °F 30.2 °F 65% 29.50 in 10.0 mi NNW 8.1 mph - N/A   Mostly Cloudy
7:55 AM 41.0 °F 36.4 °F 30.2 °F 65% 29.51 in 10.0 mi NW 6.9 mph 16.1 mph N/A   Clear
8:15 AM 42.8 °F 38.0 °F 32.0 °F 66% 29.51 in 10.0 mi NNW 8.1 mph - N/A   Clear
8:35 AM 42.8 °F 36.6 °F 30.2 °F 61% 29.51 in 10.0 mi NW 11.5 mph 18.4 mph N/A   Clear
8:55 AM 42.8 °F 38.6 °F 30.2 °F 61% 29.51 in 10.0 mi NNW 6.9 mph 20.7 mph N/A   Mostly Cloudy
9:15 AM 42.8 °F 36.6 °F 28.4 °F 57% 29.51 in 10.0 mi NNW 11.5 mph 19.6 mph N/A   Mostly Cloudy
9:35 AM 44.6 °F 38.8 °F 26.6 °F 49% 29.51 in 10.0 mi NNW 11.5 mph 23.0 mph N/A   Partly Cloudy
9:55 AM 44.6 °F 38.4 °F 26.6 °F 49% 29.51 in 10.0 mi NW 12.7 mph 18.4 mph N/A   Partly Cloudy
10:15 AM 44.6 °F 39.2 °F 24.8 °F 46% 29.52 in 10.0 mi North 10.4 mph 17.3 mph N/A   Scattered Clouds
11:15 AM 44.6 °F 39.2 °F 26.6 °F 49% 29.51 in 10.0 mi NNW 10.4 mph 18.4 mph N/A   Mostly Cloudy
11:35 AM 44.6 °F 38.1 °F 24.8 °F 46% 29.51 in 10.0 mi NW 13.8 mph 19.6 mph N/A   Scattered Clouds
11:55 AM 44.6 °F 38.1 °F 24.8 °F 46% 29.51 in 10.0 mi NNW 13.8 mph 23.0 mph N/A   Partly Cloudy
12:15 PM 44.6 °F 39.7 °F 24.8 °F 46% 29.52 in 10.0 mi NNW 9.2 mph 20.7 mph N/A   Mostly Cloudy
12:35 PM 46.4 °F 39.8 °F 24.8 °F 43% 29.52 in 10.0 mi NW 16.1 mph 21.9 mph N/A   Overcast
12:55 PM 46.4 °F 39.8 °F 23.0 °F 40% 29.52 in 10.0 mi WNW 16.1 mph 23.0 mph N/A   Overcast
1:35 PM 42.8 °F 36.6 °F 28.4 °F 57% 29.55 in 10.0 mi WSW 11.5 mph 23.0 mph N/A   Mostly Cloudy
1:55 PM 41.0 °F 32.5 °F 30.2 °F 65% 29.57 in 10.0 mi West 17.3 mph 24.2 mph N/A   Mostly Cloudy
2:35 PM 37.4 °F 30.8 °F 33.8 °F 87% 29.59 in 10.0 mi NW 9.2 mph - 0.03 in   Mostly Cloudy
2:55 PM 39.2 °F 32.5 °F 33.8 °F 81% 29.61 in 10.0 mi NNW 10.4 mph 16.1 mph 0.03 in   Mostly Cloudy
3:15 PM 37.4 °F - 32.0 °F 81% 29.60 in 10.0 mi Calm Calm - N/A   Scattered Clouds
3:35 PM 37.4 °F 33.8 °F 33.8 °F 87% 29.61 in 10.0 mi ENE 4.6 mph - N/A   Clear
3:55 PM 37.4 °F 34.9 °F 33.8 °F 87% 29.61 in 10.0 mi ENE 3.5 mph - N/A   Partly Cloudy
4:15 PM 37.4 °F - 33.8 °F 87% 29.62 in 10.0 mi Calm Calm - N/A   Mostly Cloudy
4:35 PM 35.6 °F 32.8 °F 33.8 °F 93% 29.62 in 10.0 mi SSE 3.5 mph - N/A   Mostly Cloudy
4:55 PM 35.6 °F - 33.8 °F 93% 29.64 in 8.0 mi Calm Calm - N/A   Scattered Clouds
5:35 PM 37.4 °F - 30.2 °F 75% 29.65 in 10.0 mi Calm Calm - N/A   Partly Cloudy
5:55 PM 37.4 °F - 28.4 °F 70% 29.66 in 10.0 mi Calm Calm - N/A   Clear
6:15 PM 37.4 °F 30.3 °F 28.4 °F 70% 29.67 in 10.0 mi SW 10.4 mph 16.1 mph N/A   Scattered Clouds
6:35 PM 37.4 °F 31.4 °F 28.4 °F 70% 29.68 in 10.0 mi SW 8.1 mph - N/A   Partly Cloudy
6:55 PM 37.4 °F 31.4 °F 28.4 °F 70% 29.69 in 10.0 mi SSW 8.1 mph - N/A   Partly Cloudy
7:15 PM 37.4 °F 32.1 °F 30.2 °F 75% 29.70 in 10.0 mi SSW 6.9 mph - N/A   Mostly Cloudy
7:35 PM 37.4 °F 32.1 °F 28.4 °F 70% 29.71 in 10.0 mi SSW 6.9 mph - N/A   Mostly Cloudy
8:15 PM 39.2 °F 34.2 °F 26.6 °F 61% 29.73 in 10.0 mi West 6.9 mph - N/A   Overcast
8:35 PM 39.2 °F 35.9 °F 26.6 °F 61% 29.74 in 10.0 mi SW 4.6 mph - N/A   Overcast
8:55 PM 39.2 °F 35.0 °F 26.6 °F 61% 29.75 in 10.0 mi West 5.8 mph - N/A   Overcast
9:35 PM 39.2 °F 35.0 °F 24.8 °F 56% 29.77 in 10.0 mi West 5.8 mph - N/A   Overcast
9:55 PM 39.2 °F 34.2 °F 24.8 °F 56% 29.78 in 10.0 mi WNW 6.9 mph - N/A   Overcast
10:15 PM 39.2 °F 32.5 °F 23.0 °F 52% 29.79 in 10.0 mi West 10.4 mph 16.1 mph N/A   Overcast
10:35 PM 39.2 °F 32.5 °F 21.2 °F 49% 29.81 in 10.0 mi West 10.4 mph 17.3 mph N/A   Scattered Clouds
10:55 PM 39.2 °F 33.6 °F 21.2 °F 49% 29.82 in 10.0 mi WNW 8.1 mph 17.3 mph N/A   Partly Cloudy
11:15 PM 39.2 °F 35.9 °F 21.2 °F 49% 29.82 in 10.0 mi WNW 4.6 mph 21.9 mph N/A   Clear
11:35 PM 37.4 °F 34.9 °F 21.2 °F 52% 29.83 in 10.0 mi NW 3.5 mph - N/A   Partly Cloudy